User: anonymous   Login
Location: Domont
(49.0278°N, 2.3264°E)
Time: 12:21:50
(UTC+00:00)
Language:

Orbus 7S? - Orbit

View from above orbital plane
View from above orbital plane
View from above satellite
View from above satellite

Ground track
Ground track

The orbit data is extracted from the following two-line orbital elements,

1 22519U 92086C   22196.93001659 0.00006416  00000-0  88636-3 0    01
2 22519  56.9122 142.9358 3089239 342.1416  17.9718  9.03915224    01
Epoch (UTC): 15 July 2022 22:19:13
Eccentricity: 0.3089239
inclination: 56.9122°
perigee height: 349 km
apogee height: 6363 km
right ascension of ascending node: 142.9358°
argument of perigee: 342.1416°
revolutions per day: 9.03915224
mean anomaly at epoch: 17.9718°
orbit number at epoch: 0

The dashed part of the orbit path shows where the satellite is in the earth's shadow,  

DLR